Погода в Петровке

Россия / Воронежская область     50°31′37″N   40°15′52″E
темп.,
°C
ветер,
м/с
пор.,
м/с
влажн.,
%
обл.,
%
осадки,
мм/ч
давл.,
гПа
погр.,
м
22 апреля, чт
чт2200:00+7ююз36835 0.0 1018105
03:00+6юз37835 0.0 1019122
06:00+6юз36875 0.0 1020136
09:00+12юз46645 0.0 1021686
12:00+15зюз46467 0.0 10211939
15:00+17зюз353834 0.0 10202264
18:00+14ююз476086 0.0 1021324
21:00+12ю236594 0.0 102251
23 апреля, пт
пт2300:00+10ююв2267100 0.0 102143
03:00+9юв2274100 0.0 102120
06:00+9ю2688100 0.1 1021164
09:00+13юв446993 0.3 1021619
12:00+14юв336247 0.4 10191163
15:00+16ююз24509 1.7 10181559
18:00+15юз125768 0.9 1016144
21:00+12юв4775100 0.9 1016157
24 апреля, сб
сб2400:00+10ю4984100 0.0 1014224
03:00+10юз41283100 0.2 1013809
06:00+10ююз51082100 0.2 10121175
09:00+7зсз5888100 1.7 1014837
12:00+11з575075 0.1 10131978
15:00+11зюз795597 0.9 10131860
18:00+10з58534 0.7 10131364
21:00+5з6128396 0.9 1015698
25 апреля, вс
вс2500:00+4з612730 0.0 1016662
03:00+2з511795 0.0 1018523
06:00+2зюз511825 0.0 1019430
09:00+7з57555 0.0 10201193
12:00+10з6739100 0.0 10202529
15:00+11з563797 0.0 10192293
18:00+10зюз354328 0.0 1019996
21:00+6ююз33538 0.0 102022
26 апреля, пн
пн2600:00+5ююз225798 0.0 101923
03:00+4ю3461100 0.0 101966
06:00+4ююв3863100 0.0 1018177
09:00+9ю5750100 0.0 1017617
12:00+12ююз5742100 0.0 10151983
15:00+13юз6839100 0.0 10132402
18:00+9зсз5675100 0.1 1013944
21:00+5з478778 0.3 1014539